Hoolehua, HI

7:10 AM HST on February 11, 2016 (GMT -1000)
Molokai

Weather History for PHMK - October, 2013

Change the Weather History Date:

Thursday, October 24, 2013

  Actual Average Record
Temperature  
Mean Temperature 78 °F -  
Max Temperature 84 °F 84 °F 89 °F (1984)
Min Temperature 71 °F 69 °F 64 °F (1978)
Cooling Degree Days 12    
Growing Degree Days 28 (Base 50)    
Moisture  
Dew Point 68 °F    
Average Humidity 76    
Maximum Humidity 93    
Minimum Humidity 55    
Precipitation  
Precipitation 0.00 in - - ()
Sea Level Pressure  
Sea Level Pressure 29.98 in    
Wind  
Wind Speed 7 mph (NNE)    
Max Wind Speed 16 mph    
Max Gust Speed 23 mph    
Visibility 10 miles    
Events      
Averages and records for this station are not official NWS values.
T = Trace of Precipitation, MM = Missing Value Source: NWS Daily Summary

Daily Weather History Graph

Daily Weather History Graph

Search for Another Location

Airport or City:

Trip Planner

Search our weather history database for the weather conditions in past years. The results will help you decide how hot, cold, wet, or windy it might be!

Date:

Astronomy

Oct. 24, 2013 Rise Set
Actual Time 6:27 AM HST 5:57 PM HST
Civil Twilight 6:05 AM HST 6:19 PM HST
Nautical Twilight 5:38 AM HST 6:45 PM HST
Astronomical Twilight 5:13 AM HST 7:11 PM HST
Moon 10:45 PM HST (10/24) 11:21 AM HST (10/24)
Length of Visible Light 12h 14m
Length of Day
11h 29m
Waning Gibbous, 69% of the Moon is Illuminated
Oct 24
Waning Gibbous
Oct 26
Last Quarter
Nov 3
New
Nov 9
First Quarter
Nov 17
Full

Hourly Weather History & Observations

Time (HST) Temp. Heat Index Dew Point Humidity Pressure Visibility Wind Dir Wind Speed Gust Speed Precip Events Conditions
12:54 AM 73.0 °F - 68.0 °F 84% 30.00 in 10.0 mi NNE 5.8 mph - N/A   Clear
1:54 AM 72.0 °F - 68.0 °F 87% 29.98 in 10.0 mi NNE 4.6 mph - N/A   Clear
2:54 AM 72.0 °F - 66.0 °F 81% 29.97 in 10.0 mi NE 3.5 mph - N/A   Clear
3:54 AM 71.1 °F - 64.9 °F 81% 29.97 in 10.0 mi North 3.5 mph - N/A   Clear
4:54 AM 71.1 °F - 66.9 °F 87% 29.97 in 10.0 mi NNE 4.6 mph - N/A   Clear
5:54 AM 71.1 °F - 69.1 °F 93% 29.98 in 10.0 mi NE 4.6 mph - N/A   Clear
6:54 AM 73.0 °F - 66.9 °F 81% 29.99 in 10.0 mi NE 6.9 mph - N/A   Clear
7:54 AM 77.0 °F - 69.1 °F 76% 30.00 in 10.0 mi NE 10.4 mph - N/A   Clear
8:54 AM 78.1 °F - 69.1 °F 74% 30.01 in 10.0 mi NNE 12.7 mph - N/A   Clear
9:54 AM 80.1 °F 82.3 °F 66.9 °F 64% 30.01 in 10.0 mi NNE 13.8 mph 21.9 mph N/A   Partly Cloudy
10:54 AM 80.1 °F 82.3 °F 66.9 °F 64% 30.00 in 10.0 mi NNE 13.8 mph 23.0 mph N/A   Scattered Clouds
11:54 AM 82.9 °F 85.8 °F 68.0 °F 60% 29.97 in 10.0 mi NE 16.1 mph 21.9 mph N/A   Scattered Clouds
12:54 PM 84.9 °F 87.6 °F 66.9 °F 55% 29.94 in 10.0 mi North 10.4 mph 17.3 mph N/A   Clear
1:54 PM 80.1 °F 82.3 °F 66.9 °F 64% 29.93 in 10.0 mi NNE 10.4 mph 18.4 mph N/A   Clear
2:54 PM 80.1 °F 82.3 °F 66.9 °F 64% 29.92 in 10.0 mi NNE 10.4 mph - N/A   Partly Cloudy
3:54 PM 82.0 °F 84.9 °F 68.0 °F 62% 29.93 in 10.0 mi NNE 10.4 mph 17.3 mph N/A   Clear
4:54 PM 80.1 °F 82.7 °F 68.0 °F 67% 29.94 in 10.0 mi North 5.8 mph - N/A   Partly Cloudy
5:54 PM 75.9 °F - 69.1 °F 79% 29.96 in 10.0 mi NNE 8.1 mph - N/A   Clear
6:54 PM 75.0 °F - 69.1 °F 82% 29.98 in 10.0 mi NNE 8.1 mph - N/A   Clear
7:54 PM 73.9 °F - 68.0 °F 82% 30.00 in 10.0 mi NE 8.1 mph - N/A   Clear
8:54 PM 73.9 °F - 68.0 °F 82% 30.01 in 10.0 mi NE 6.9 mph - N/A   Clear
9:54 PM 73.9 °F - 69.1 °F 85% 30.02 in 10.0 mi NE 4.6 mph - N/A   Clear
10:54 PM 73.9 °F - 68.0 °F 82% 30.02 in 10.0 mi NNE 5.8 mph - N/A   Clear
11:54 PM 73.0 °F - 69.1 °F 87% 30.01 in 10.0 mi NE 9.2 mph - N/A   Clear